TimePST,TemperatureF,Dew PointF,Humidity,Sea Level PressureIn,VisibilityMPH,Wind Direction,Wind SpeedMPH,Gust SpeedMPH,PrecipitationIn,Events,Conditions,WindDirDegrees,DateUTC
12:15 AM,39.2,32.0,75,30.07,10.0,SSW,17.3,-,N/A,,Overcast,210,2012-12-04 08:15:00
12:55 AM,35.6,30.2,81,30.06,10.0,South,19.6,-,N/A,,Overcast,190,2012-12-04 08:55:00
1:15 AM,35.6,30.2,81,30.08,10.0,SSW,18.4,-,N/A,,Overcast,200,2012-12-04 09:15:00
1:35 AM,35.6,32.0,87,30.08,10.0,South,16.1,-,N/A,,Overcast,180,2012-12-04 09:35:00
2:15 AM,35.6,33.8,93,30.09,10.0,South,21.9,26.5,N/A,,Overcast,180,2012-12-04 10:15:00
2:35 AM,35.6,33.8,93,30.08,10.0,South,20.7,27.6,N/A,,Overcast,180,2012-12-04 10:35:00
2:55 AM,35.6,33.8,93,30.08,10.0,South,20.7,-,N/A,,Overcast,180,2012-12-04 10:55:00
3:15 AM,37.4,33.8,87,30.07,10.0,South,25.3,32.2,N/A,,Overcast,180,2012-12-04 11:15:00
3:35 AM,37.4,33.8,87,30.07,10.0,South,21.9,-,N/A,,Overcast,180,2012-12-04 11:35:00
3:55 AM,37.4,33.8,87,30.07,10.0,South,23.0,28.8,N/A,,Overcast,190,2012-12-04 11:55:00
4:15 AM,37.4,33.8,87,30.07,10.0,South,24.2,31.1,N/A,,Overcast,190,2012-12-04 12:15:00
4:35 AM,37.4,33.8,87,30.08,10.0,South,25.3,33.4,N/A,,Overcast,190,2012-12-04 12:35:00
4:55 AM,37.4,33.8,87,30.07,10.0,South,27.6,33.4,N/A,,Overcast,190,2012-12-04 12:55:00
5:15 AM,37.4,33.8,87,30.08,10.0,South,24.2,33.4,N/A,,Overcast,190,2012-12-04 13:15:00
5:35 AM,37.4,35.6,93,30.08,10.0,SSW,25.3,31.1,N/A,,Overcast,200,2012-12-04 13:35:00
5:55 AM,37.4,33.8,87,30.07,10.0,South,26.5,33.4,N/A,,Overcast,190,2012-12-04 13:55:00
6:15 AM,37.4,33.8,87,30.08,10.0,South,19.6,28.8,N/A,,Mostly Cloudy,190,2012-12-04 14:15:00
6:35 AM,37.4,35.6,93,30.08,10.0,South,25.3,28.8,N/A,,Scattered Clouds,190,2012-12-04 14:35:00
6:55 AM,37.4,35.6,93,30.09,10.0,South,20.7,29.9,N/A,,Mostly Cloudy,190,2012-12-04 14:55:00
7:15 AM,37.4,35.6,93,30.08,10.0,South,23.0,29.9,N/A,,Overcast,190,2012-12-04 15:15:00
7:35 AM,37.4,35.6,93,30.08,10.0,South,23.0,27.6,N/A,,Mostly Cloudy,190,2012-12-04 15:35:00
7:55 AM,37.4,35.6,93,30.09,10.0,South,20.7,29.9,N/A,,Mostly Cloudy,190,2012-12-04 15:55:00
8:15 AM,37.4,35.6,93,30.09,10.0,South,24.2,27.6,N/A,,Mostly Cloudy,190,2012-12-04 16:15:00
8:35 AM,39.2,35.6,87,30.10,10.0,South,21.9,28.8,N/A,,Mostly Cloudy,190,2012-12-04 16:35:00
8:55 AM,39.2,35.6,87,30.10,10.0,South,19.6,26.5,N/A,,Overcast,190,2012-12-04 16:55:00
9:15 AM,39.2,35.6,87,30.11,10.0,South,17.3,24.2,N/A,,Mostly Cloudy,170,2012-12-04 17:15:00
9:35 AM,39.2,35.6,87,30.12,10.0,South,19.6,-,N/A,,Overcast,190,2012-12-04 17:35:00
9:55 AM,39.2,35.6,87,30.13,10.0,SSW,18.4,-,N/A,,Overcast,200,2012-12-04 17:55:00
10:15 AM,39.2,37.4,93,30.13,10.0,South,17.3,20.7,N/A,,Overcast,190,2012-12-04 18:15:00
10:35 AM,39.2,37.4,93,30.14,10.0,SSW,13.8,-,N/A,,Overcast,200,2012-12-04 18:35:00
10:55 AM,41.0,37.4,87,30.13,10.0,SSW,12.7,19.6,N/A,,Overcast,200,2012-12-04 18:55:00
11:15 AM,41.0,37.4,87,30.13,10.0,South,10.4,-,N/A,,Overcast,170,2012-12-04 19:15:00
11:35 AM,41.0,37.4,87,30.12,10.0,South,11.5,-,N/A,,Overcast,170,2012-12-04 19:35:00
11:55 AM,42.8,37.4,81,30.12,10.0,South,15.0,20.7,N/A,,Overcast,180,2012-12-04 19:55:00
12:15 PM,41.0,37.4,87,30.11,10.0,South,13.8,24.2,N/A,,Overcast,170,2012-12-04 20:15:00
12:35 PM,41.0,37.4,87,30.10,10.0,South,13.8,-,N/A,,Overcast,180,2012-12-04 20:35:00
12:55 PM,41.0,39.2,93,30.10,10.0,South,13.8,-,N/A,,Overcast,190,2012-12-04 20:55:00
1:15 PM,41.0,39.2,93,30.10,10.0,SSW,15.0,20.7,N/A,,Mostly Cloudy,200,2012-12-04 21:15:00
1:35 PM,41.0,39.2,93,30.10,10.0,South,11.5,-,N/A,,Overcast,190,2012-12-04 21:35:00
1:55 PM,41.0,39.2,93,30.09,10.0,South,9.2,-,N/A,,Overcast,170,2012-12-04 21:55:00
2:15 PM,41.0,39.2,93,30.09,10.0,South,13.8,-,N/A,,Overcast,170,2012-12-04 22:15:00
2:35 PM,42.8,39.2,87,30.08,10.0,South,12.7,-,N/A,,Overcast,170,2012-12-04 22:35:00
2:55 PM,42.8,39.2,87,30.08,10.0,South,12.7,-,N/A,,Overcast,170,2012-12-04 22:55:00
3:15 PM,42.8,39.2,87,30.09,10.0,South,12.7,-,N/A,,Overcast,170,2012-12-04 23:15:00
3:35 PM,42.8,39.2,87,30.09,10.0,South,12.7,-,N/A,,Overcast,180,2012-12-04 23:35:00
3:55 PM,41.0,39.2,93,30.09,10.0,South,12.7,-,N/A,,Overcast,180,2012-12-04 23:55:00
4:15 PM,41.0,39.2,93,30.09,10.0,South,12.7,-,N/A,,Overcast,180,2012-12-05 00:15:00
4:35 PM,41.0,39.2,93,30.09,10.0,South,13.8,-,N/A,,Overcast,180,2012-12-05 00:35:00
4:55 PM,41.0,39.2,93,30.10,10.0,South,13.8,-,N/A,,Overcast,190,2012-12-05 00:55:00
5:15 PM,39.2,39.2,100,30.09,10.0,South,15.0,-,N/A,,Overcast,180,2012-12-05 01:15:00
5:35 PM,39.2,39.2,100,30.10,10.0,South,10.4,-,N/A,,Mostly Cloudy,180,2012-12-05 01:35:00
5:55 PM,39.2,39.2,100,30.10,10.0,South,11.5,-,N/A,,Overcast,170,2012-12-05 01:55:00
6:15 PM,39.2,39.2,100,30.11,10.0,South,9.2,-,N/A,,Overcast,180,2012-12-05 02:15:00
6:35 PM,39.2,39.2,100,30.10,10.0,South,9.2,-,N/A,,Overcast,180,2012-12-05 02:35:00
6:55 PM,39.2,39.2,100,30.10,10.0,South,11.5,-,N/A,,Overcast,170,2012-12-05 02:55:00
7:15 PM,39.2,39.2,100,30.09,10.0,South,11.5,-,N/A,,Overcast,180,2012-12-05 03:15:00
7:35 PM,39.2,39.2,100,30.09,10.0,South,13.8,-,N/A,,Overcast,180,2012-12-05 03:35:00
7:55 PM,39.2,39.2,100,30.09,10.0,South,11.5,-,N/A,,Overcast,180,2012-12-05 03:55:00
8:15 PM,39.2,39.2,100,30.09,10.0,South,8.1,-,N/A,,Overcast,170,2012-12-05 04:15:00
8:35 PM,39.2,39.2,100,30.09,10.0,South,9.2,-,N/A,,Overcast,170,2012-12-05 04:35:00
8:55 PM,39.2,39.2,100,30.09,10.0,South,8.1,-,N/A,,Overcast,180,2012-12-05 04:55:00
9:15 PM,39.2,39.2,100,30.09,10.0,South,8.1,-,N/A,,Overcast,180,2012-12-05 05:15:00
9:35 PM,39.2,39.2,100,30.08,10.0,South,8.1,-,N/A,,Overcast,180,2012-12-05 05:35:00
9:55 PM,39.2,39.2,100,30.08,10.0,South,6.9,-,N/A,,Overcast,170,2012-12-05 05:55:00
10:15 PM,41.0,39.2,93,30.07,10.0,South,6.9,-,N/A,,Overcast,170,2012-12-05 06:15:00
10:35 PM,41.0,39.2,93,30.07,10.0,SSW,12.7,-,N/A,,Overcast,200,2012-12-05 06:35:00
10:55 PM,39.2,39.2,100,30.07,10.0,SSW,10.4,-,N/A,,Overcast,200,2012-12-05 06:55:00
11:15 PM,39.2,37.4,93,30.08,10.0,SSW,10.4,-,N/A,,Overcast,210,2012-12-05 07:15:00
11:55 PM,39.2,37.4,93,30.09,10.0,SW,13.8,-,0.01,,Overcast,220,2012-12-05 07:55:00